Location: Isle of Man Observatory
(54.1776°N, 4.6264°W)
Time: 13:08:41
(UTC+01:00)

BlueWalker 3 - Visible Passes

Search period start: 09 December 2025 00:00
Search period end: 19 December 2025 00:00
Orbit: 455 x 462 km, 53.2° (Epoch: 08 December)

Date Brightness Start Highest point End Pass type
(mag) Time Alt. Az. Time Alt. Az. Time Alt. Az.
09 Dec 4.4 18:27:27 10° W 18:30:14 21° SW 18:33:00 10° SSE visible
10 Dec 4.3 17:52:30 10° W 17:55:28 24° SW 17:58:27 10° SSE visible
13 Dec 5.6 17:47:01 10° WSW 17:47:50 11° SW 17:48:38 10° SSW visible
